Weather History for KAQP - February, 2015

Change the Weather History Date:

Friday, February 20, 2015

  Actual Average Record
Temperature  
Mean Temperature 25 °F -  
Max Temperature 35 °F 26 °F 44 °F (2007)
Min Temperature 15 °F 10 °F -25 °F (2008)
Degree Days  
Heating Degree Days 40    
Moisture  
Dew Point 17 °F    
Average Humidity 75    
Maximum Humidity 86    
Minimum Humidity 63    
Precipitation  
Precipitation 0.00 in - - ()
Sea Level Pressure  
Sea Level Pressure 29.80 in    
Wind  
Wind Speed 10 mph (SW)    
Max Wind Speed 20 mph    
Max Gust Speed 25 mph    
Visibility 9 miles    
Events Snow    
Averages and records for this station are not official NWS values.
T = Trace of Precipitation, MM = Missing Value Source: NWS Daily Summary

Daily Weather History Graph

Daily Weather History Graph

Search for Another Location

Airport or City:

Trip Planner

Search our weather history database for the weather conditions in past years. The results will help you decide how hot, cold, wet, or windy it might be!

Date:

Astronomy

Feb. 20, 2015 Rise Set
Actual Time 7:17 AM CST 5:58 PM CST
Civil Twilight 6:47 AM CST 6:28 PM CST
Nautical Twilight 6:13 AM CST 7:02 PM CST
Astronomical Twilight 5:39 AM CST 7:36 PM CST
Moon 8:04 AM CST (2/20) 8:32 PM CST (2/20)
Length of Visible Light 11h 40m
Length of Day
10h 40m
Waxing Crescent, 5% of the Moon is Illuminated
Feb 20
Waxing Crescent
Feb 25
First Quarter
Mar 5
Full
Mar 13
Last Quarter
Mar 20
New

Hourly Weather History & Observations

Time (CST) Temp. Windchill Dew Point Humidity Pressure Visibility Wind Dir Wind Speed Gust Speed Precip Events Conditions
12:14 AM 17.6 °F 5.0 °F 6.8 °F 63% 29.94 in 10.0 mi SSE 11.5 mph 16.1 mph N/A Snow Light Snow
12:34 AM 17.6 °F 5.0 °F 6.8 °F 63% 29.93 in 7.0 mi SSE 11.5 mph 16.1 mph N/A Snow Light Snow
12:55 AM 17.6 °F 5.7 °F 8.6 °F 68% 29.93 in 5.0 mi SSE 10.4 mph 16.1 mph N/A Snow Light Snow
1:14 AM 17.6 °F 5.7 °F 10.4 °F 73% 29.92 in 7.0 mi SSE 10.4 mph - N/A Snow Light Snow
1:34 AM 17.6 °F 6.4 °F 10.4 °F 73% 29.91 in 7.0 mi SSE 9.2 mph - N/A Snow Light Snow
1:55 AM 17.6 °F 8.2 °F 10.4 °F 73% 29.90 in 5.0 mi SE 6.9 mph - N/A Snow Light Snow
2:15 AM 15.8 °F 3.4 °F 10.4 °F 79% 29.88 in 10.0 mi SSE 10.4 mph - N/A   Overcast
2:34 AM 15.8 °F 5.1 °F 10.4 °F 79% 29.88 in 10.0 mi SSE 8.1 mph - N/A   Overcast
2:54 AM 15.8 °F 2.7 °F 10.4 °F 79% 29.86 in 10.0 mi SSE 11.5 mph - N/A   Overcast
3:14 AM 15.8 °F 3.4 °F 10.4 °F 79% 29.85 in 10.0 mi SSE 10.4 mph 16.1 mph N/A   Overcast
3:34 AM 15.8 °F 5.1 °F 10.4 °F 79% 29.85 in 10.0 mi SSE 8.1 mph - N/A   Overcast
3:54 AM 17.6 °F 5.7 °F 10.4 °F 73% 29.83 in 10.0 mi SSE 10.4 mph - N/A   Overcast
4:14 AM 17.6 °F 5.7 °F 10.4 °F 73% 29.82 in 10.0 mi SSE 10.4 mph - N/A   Overcast
4:34 AM 17.6 °F 6.4 °F 10.4 °F 73% 29.82 in 10.0 mi SSE 9.2 mph - N/A   Overcast
4:54 AM 17.6 °F 6.4 °F 10.4 °F 73% 29.80 in 10.0 mi SSE 9.2 mph - N/A   Overcast
5:15 AM 17.6 °F 5.7 °F 12.2 °F 79% 29.79 in 10.0 mi SSE 10.4 mph - N/A   Overcast
5:34 AM 17.6 °F 6.4 °F 10.4 °F 73% 29.79 in 10.0 mi SSE 9.2 mph - N/A   Overcast
5:54 AM 17.6 °F 6.4 °F 12.2 °F 79% 29.78 in 10.0 mi South 9.2 mph - N/A   Overcast
6:14 AM 19.4 °F 9.5 °F 12.2 °F 74% 29.78 in 10.0 mi South 8.1 mph - N/A   Overcast
6:34 AM 19.4 °F 10.4 °F 12.2 °F 74% 29.78 in 10.0 mi South 6.9 mph - N/A   Overcast
6:54 AM 19.4 °F 9.5 °F 12.2 °F 74% 29.77 in 10.0 mi SSE 8.1 mph - N/A   Overcast
7:15 AM 19.4 °F 9.5 °F 12.2 °F 74% 29.76 in 10.0 mi SSE 8.1 mph - N/A   Overcast
7:35 AM 19.4 °F 8.6 °F 12.2 °F 74% 29.76 in 10.0 mi South 9.2 mph - N/A   Overcast
7:54 AM 19.4 °F 8.6 °F 12.2 °F 74% 29.76 in 10.0 mi South 9.2 mph - N/A   Mostly Cloudy
8:14 AM 19.4 °F 9.5 °F 12.2 °F 74% 29.75 in 10.0 mi South 8.1 mph - N/A   Overcast
8:34 AM 21.2 °F 10.9 °F 12.2 °F 68% 29.75 in 10.0 mi South 9.2 mph - N/A   Overcast
8:54 AM 21.2 °F 10.9 °F 14.0 °F 74% 29.74 in 10.0 mi SSW 9.2 mph - N/A   Overcast
9:14 AM 21.2 °F 11.7 °F 14.0 °F 74% 29.75 in 10.0 mi South 8.1 mph - N/A   Overcast
9:34 AM 23.0 °F 13.9 °F 14.0 °F 68% 29.75 in 10.0 mi SSW 8.1 mph - N/A   Overcast
9:54 AM 24.8 °F 17.9 °F 15.8 °F 69% 29.74 in 10.0 mi SSW 5.8 mph - N/A   Overcast
10:14 AM 24.8 °F 16.1 °F 15.8 °F 69% 29.73 in 10.0 mi South 8.1 mph - N/A   Overcast
10:34 AM 26.6 °F 21.2 °F 15.8 °F 64% 29.73 in 10.0 mi SSW 4.6 mph - N/A   Overcast
10:54 AM 26.6 °F 20.0 °F 15.8 °F 64% 29.74 in 10.0 mi SSW 5.8 mph - N/A   Overcast
11:14 AM 28.4 °F 22.2 °F 17.6 °F 64% 29.73 in 10.0 mi SSW 5.8 mph - N/A   Mostly Cloudy
11:35 AM 28.4 °F 21.2 °F 17.6 °F 64% 29.73 in 10.0 mi SW 6.9 mph - N/A   Overcast
11:54 AM 28.4 °F 22.2 °F 19.4 °F 69% 29.74 in 10.0 mi SW 5.8 mph - N/A   Overcast
12:14 PM 30.2 °F 24.3 °F 21.2 °F 69% 29.73 in 10.0 mi SW 5.8 mph - N/A   Overcast
12:34 PM 32.0 °F 26.4 °F 21.2 °F 64% 29.73 in 10.0 mi WSW 5.8 mph - N/A   Overcast
12:54 PM 32.0 °F 26.4 °F 24.8 °F 75% 29.72 in 10.0 mi West 5.8 mph - N/A   Overcast
1:14 PM 33.8 °F 28.6 °F 24.8 °F 70% 29.72 in 7.0 mi West 5.8 mph - N/A Snow Light Snow
1:34 PM 33.8 °F 30.8 °F 26.6 °F 75% 29.71 in 7.0 mi West 3.5 mph - N/A Snow Light Snow
1:55 PM 33.8 °F 30.8 °F 26.6 °F 75% 29.71 in 10.0 mi West 3.5 mph - N/A   Overcast
2:15 PM 35.6 °F 32.8 °F 26.6 °F 70% 29.71 in 10.0 mi West 3.5 mph - N/A   Overcast
2:35 PM 35.6 °F 30.7 °F 28.4 °F 75% 29.71 in 7.0 mi WNW 5.8 mph - N/A Snow Light Snow
2:55 PM 35.6 °F 29.9 °F 28.4 °F 75% 29.72 in 7.0 mi NW 6.9 mph - N/A Snow Light Snow
3:14 PM 35.6 °F 29.2 °F 28.4 °F 75% 29.72 in 7.0 mi NW 8.1 mph - N/A Snow Light Snow
3:34 PM 35.6 °F 28.6 °F 28.4 °F 75% 29.73 in 10.0 mi NNW 9.2 mph - N/A   Overcast
3:55 PM 33.8 °F 26.4 °F 28.4 °F 81% 29.74 in 10.0 mi NNW 9.2 mph - N/A   Overcast
4:14 PM 33.8 °F 26.4 °F 28.4 °F 81% 29.74 in 7.0 mi NNW 9.2 mph - N/A   Overcast
4:34 PM 33.8 °F 26.4 °F 28.4 °F 81% 29.75 in 7.0 mi NNW 9.2 mph - N/A   Overcast
4:55 PM 33.8 °F 25.8 °F 28.4 °F 81% 29.76 in 2.0 mi North 10.4 mph - N/A Snow Light Snow
5:15 PM 30.2 °F 18.9 °F 26.6 °F 86% 29.77 in 0.8 mi North 16.1 mph 19.6 mph N/A Snow Light Snow
5:34 PM 30.2 °F 19.3 °F 26.6 °F 86% 29.78 in 1.0 mi North 15.0 mph - N/A Snow Light Snow
5:55 PM 28.4 °F 16.6 °F 24.8 °F 86% 29.80 in 1.8 mi North 16.1 mph - N/A Snow Light Snow
6:14 PM 28.4 °F 17.0 °F 24.8 °F 86% 29.80 in 5.0 mi North 15.0 mph - N/A Snow Light Snow
6:34 PM 26.6 °F 14.7 °F 23.0 °F 86% 29.82 in 5.0 mi North 15.0 mph - N/A   Overcast
6:54 PM 26.6 °F 13.1 °F 23.0 °F 86% 29.83 in 7.0 mi North 19.6 mph 25.3 mph N/A   Overcast
7:14 PM 24.8 °F 11.5 °F 19.4 °F 80% 29.84 in 7.0 mi North 17.3 mph - N/A   Overcast
7:34 PM 24.8 °F 12.4 °F 19.4 °F 80% 29.85 in 10.0 mi North 15.0 mph - N/A   Overcast
7:54 PM 24.8 °F 11.1 °F 19.4 °F 80% 29.85 in 10.0 mi North 18.4 mph - N/A   Overcast
8:14 PM 23.0 °F 10.1 °F 19.4 °F 86% 29.86 in 10.0 mi North 15.0 mph - N/A   Overcast
8:35 PM 23.0 °F 9.2 °F 17.6 °F 80% 29.87 in 10.0 mi NNW 17.3 mph - N/A   Overcast
8:54 PM 21.2 °F 7.8 °F 17.6 °F 86% 29.88 in 10.0 mi NNW 15.0 mph - N/A   Overcast
9:14 PM 21.2 °F 7.8 °F 15.8 °F 80% 29.89 in 10.0 mi NNW 15.0 mph - N/A   Mostly Cloudy
9:34 PM 19.4 °F 6.6 °F 12.2 °F 74% 29.89 in 10.0 mi NNW 12.7 mph - N/A   Clear
9:54 PM 17.6 °F 5.7 °F 12.2 °F 79% 29.90 in 10.0 mi NNW 10.4 mph - N/A   Clear
10:15 PM 17.6 °F 5.7 °F 12.2 °F 79% 29.90 in 10.0 mi NNW 10.4 mph - N/A   Clear
10:34 PM 15.8 °F 4.2 °F 10.4 °F 79% 29.90 in 10.0 mi NNW 9.2 mph - N/A   Clear
10:55 PM 15.8 °F 5.1 °F 10.4 °F 79% 29.90 in 10.0 mi NNW 8.1 mph - N/A   Scattered Clouds
11:14 PM 17.6 °F 5.7 °F 12.2 °F 79% 29.91 in 10.0 mi NNW 10.4 mph - N/A   Overcast
11:34 PM 17.6 °F 4.3 °F 12.2 °F 79% 29.92 in 10.0 mi NNW 12.7 mph - N/A   Overcast
11:54 PM 17.6 °F 2.7 °F 12.2 °F 79% 29.92 in 10.0 mi NNW 16.1 mph 21.9 mph N/A   Overcast